Terminal Aerodrome Forecast
Issued by NWS

Home | Current Version | Previous Version | Graphics & Text | Print | Product List | Glossary On
Versions: 1 2 3 4 5 6 7 8 9 10 11 12 13 14 15 16 17 18 19 20 21 22 23 24 25 26 27 28 29 30 31 32 33 34 35
000
FTUS45 KGGW 281500 AAA
TAFGDV
TAF AMD
KGDV 281549Z 2816/2912 26030G40KT P6SM -SHRA SCT018 BKN030 OVC040
     FM290000 29030G42KT P6SM BKN045 BKN090
     FM290300 29022G30KT P6SM BKN060 BKN140
     FM290600 28016KT P6SM SCT210
      AMD LTD TO CLD VIS AND WIND=

USA.gov is the U.S. government's official web portal to all federal, state and local government web resources and services.